This is the latest recevied weather packets stored in our database for station/object W4ZHA. If no packets are shown the sender has not sent any weather packets the latest 10 day(s).
| Time | Temp. | Humidity | Pressure | Rain* | Wind** | Luminosity | Snow |
|---|---|---|---|---|---|---|---|
| 1778006585 | 25.56° C | 45% | 1013 hPa | 0 mm | - | 606 W/m² | - |
| 1778006282 | 25° C | 45% | 1013.4 hPa | 0 mm | - | 414 W/m² | - |
| 1778005979 | 25° C | 45% | 1013.4 hPa | 0 mm | - | 501 W/m² | - |
| 1778005676 | 25.56° C | 45% | 1013.4 hPa | 0 mm | - | 473 W/m² | - |
| 1778005372 | 25.56° C | 45% | 1013.8 hPa | 0 mm | - | 515 W/m² | - |
| 1778005069 | 25.56° C | 45% | 1013.8 hPa | 0 mm | - | 460 W/m² | - |
| 1778004767 | 25° C | 46% | 1013.8 hPa | 0 mm | - | 475 W/m² | - |
| 1778004463 | 25.56° C | 45% | 1013.8 hPa | 0 mm | - | 510 W/m² | - |
| 1778004159 | 25.56° C | 45% | 1013.8 hPa | 0 mm | - | 395 W/m² | - |
| 1778003856 | 25.56° C | 45% | 1013.8 hPa | 0 mm | - | 306 W/m² | - |
| 1778003553 | 25° C | 46% | 1014.1 hPa | 0 mm | - | 413 W/m² | - |
| 1778003249 | 25.56° C | 45% | 1013.8 hPa | 0 mm | - | 315 W/m² | - |
| 1778002946 | 25° C | 46% | 1014.1 hPa | 0 mm | - | 553 W/m² | - |
| 1778002642 | 25° C | 45% | 1014.1 hPa | 0 mm | - | 312 W/m² | - |
| 1778002339 | 25.56° C | 45% | 1014.1 hPa | 0 mm | - | 523 W/m² | - |
| 1778002036 | 25.56° C | 45% | 1014.4 hPa | 0 mm | - | 450 W/m² | - |
| 1778001733 | 25° C | 46% | 1014.4 hPa | 0 mm | - | 444 W/m² | - |
| 1778001433 | 25.56° C | 45% | 1014.4 hPa | 0 mm | - | 451 W/m² | - |
| 1778001130 | 24.44° C | 46% | 1015.1 hPa | 0 mm | - | 436 W/m² | - |
| 1778000827 | 24.44° C | 46% | 1014.8 hPa | 0 mm | - | 404 W/m² | - |
| 1778000524 | 25° C | 46% | 1014.8 hPa | 0 mm | - | 299 W/m² | - |
| 1778000224 | 25° C | 46% | 1015.1 hPa | 0 mm | - | 398 W/m² | - |
| 1777999920 | 23.89° C | 47% | 1014.8 hPa | 0 mm | - | 379 W/m² | - |
| 1777999616 | 23.89° C | 47% | 1015.1 hPa | 0 mm | - | 436 W/m² | - |
| 1777999313 | 23.89° C | 46% | 1015.1 hPa | 0 mm | - | 387 W/m² | - |
* Rain latest hour (hover to see other rain measurements)
** Current wind speed in m/s (hover to see current wind gust speed)